NIEUW!!! Volg onze weer- en natuurfoto's op Instagram @ weerstationmaaseik.be

WS Maaseik 1 Meer informatie WS Maaseik 1


WS Maaseik 2 Meer informatie WS Maaseik 2


Regen radar Meer informatie rain snow radar


Bezoek onze andere website:

Vorige versie
weerstation Maaseik


Bezoek ook eens deze sites:

Weerstation Geleen

Weerstation Luyksgestel



Het weer levert geen direct gevaar op.    Er zijn geen waarschuwingen afgegeven.

Weather Underground Historische gegevens

Dagelijkse Samenvatting juni 23, 2018 Eenheden:  Metrisch    Engels   Beide
« Vorige Dag
Volgende Dag »
Dagelijkse Wekelijkse Maandelijkse Jaarlijkse Aangepaste
  Huidig: Hoog: Laag: Gemiddeld:
Temperatuur: -9.1 °C -17.8 °C -13.6 °C -11.9 °C
Dauwpunt: -12.5 °C -17.8 °C -15.6 °C -14.3 °C
Vochtigheid: 67 % Humidity % 66 % 74 %
Wind snelheid: 12.9 km/h 0 km/h 5.1 km/h 12.9 km/h
Windvlaag: 18.2 km/h 0 km/h - -
Wind:West - - West
Luchtdruk: 35793.4 hPa 0 hPa 35793.4 hPa -
Neerslag: 0 mm      
Historical Graphs
 
 
Tabel voor juni 23, 2018
Tijd Temperatuur Dauwpunt Luchtdruk Wind Wind snelheid Windvlaag Vochtigheid Regenval per uur
-17.8 °C -17.8 °C 0 hPa Calm     Humidity % 0 mm
00:04 -11.9 °C -14.7 °C 35793.4 hPa West 12.9 km/h 18.2 km/h 71 % 0 mm
00:09 -11.9 °C -14.7 °C 35793.4 hPa WNW 12.9 km/h 18.2 km/h 71 % 0 mm
00:14 -11.9 °C -14.6 °C 35793.4 hPa West 12.9 km/h 18.2 km/h 72 % 0 mm
00:19 -11.9 °C -14.6 °C 35793.4 hPa WNW 12.9 km/h 15.6 km/h 72 % 0 mm
00:24 -11.9 °C -14.6 °C 35793.4 hPa WSW 15.6 km/h 18.2 km/h 72 % 0 mm
00:29 -11.9 °C -14.6 °C 35793.4 hPa West 12.9 km/h 18.2 km/h 72 % 0 mm
00:34 -12 °C -14.7 °C 35793.4 hPa WSW 10.3 km/h 18.2 km/h 72 % 0 mm
00:39 -12.1 °C -14.7 °C 35793.4 hPa WSW 20.8 km/h 15.6 km/h 72 % 0 mm
00:44 -12.1 °C -14.7 °C 35793.4 hPa West 18.2 km/h 12.9 km/h 72 % 0 mm
00:49 -12.1 °C -14.7 °C 35793.4 hPa West 12.9 km/h 20.8 km/h 73 % 0 mm
00:54 -12.1 °C -14.7 °C 35793.4 hPa WSW 10.3 km/h 20.8 km/h 73 % 0 mm
00:59 -12.2 °C -14.7 °C 35793.4 hPa WSW 10.3 km/h 20.8 km/h 73 % 0 mm
01:04 -12.2 °C -14.7 °C 35793.4 hPa WSW 10.3 km/h 12.9 km/h 73 % 0 mm
01:09 -12.2 °C -14.8 °C 35793.4 hPa West 7.7 km/h 12.9 km/h 73 % 0 mm
01:14 -12.3 °C -14.8 °C 35793.4 hPa West 10.3 km/h 12.9 km/h 73 % 0 mm
01:19 -12.3 °C -14.8 °C 35793.4 hPa West 10.3 km/h 15.6 km/h 73 % 0 mm
01:24 -12.3 °C -14.8 °C 35793.4 hPa West 12.9 km/h 15.6 km/h 73 % 0 mm
01:29 -12.3 °C -14.8 °C 35793.4 hPa WSW 10.3 km/h 15.6 km/h 73 % 0 mm
01:34 -12.3 °C -14.9 °C 35793.4 hPa WSW 10.3 km/h 15.6 km/h 73 % 0 mm
01:39 -12.3 °C -14.8 °C 35793.4 hPa West 15.6 km/h 12.9 km/h 74 % 0 mm
01:44 -12.3 °C -14.8 °C 35793.4 hPa WNW 12.9 km/h 15.6 km/h 74 % 0 mm
01:49 -12.4 °C -14.8 °C 35793.4 hPa WSW 10.3 km/h 18.2 km/h 74 % 0 mm
01:54 -12.4 °C -14.8 °C 35793.4 hPa WSW 15.6 km/h 18.2 km/h 74 % 0 mm
01:59 -12.4 °C -14.8 °C 35793.4 hPa WNW 15.6 km/h 18.2 km/h 74 % 0 mm
02:04 -12.4 °C -14.9 °C 35793.4 hPa West 12.9 km/h 18.2 km/h 74 % 0 mm
02:09 -12.4 °C -14.9 °C 35793.4 hPa WSW 15.6 km/h 15.6 km/h 74 % 0 mm
02:14 -12.4 °C -14.9 °C 35793.4 hPa WSW 7.7 km/h 15.6 km/h 74 % 0 mm
02:19 -12.5 °C -14.9 °C 35793.4 hPa West 15.6 km/h 15.6 km/h 74 % 0 mm
02:24 -12.5 °C -14.9 °C 35793.4 hPa West 15.6 km/h 15.6 km/h 74 % 0 mm
02:29 -12.5 °C -14.8 °C 35793.4 hPa West 10.3 km/h 15.6 km/h 75 % 0 mm
02:34 -12.6 °C -14.9 °C 35793.4 hPa WSW 12.9 km/h 15.6 km/h 75 % 0 mm
02:39 -12.6 °C -14.9 °C 35793.4 hPa WNW 10.3 km/h 15.6 km/h 75 % 0 mm
02:44 -12.6 °C -14.9 °C 35793.4 hPa West 10.3 km/h 15.6 km/h 75 % 0 mm
02:49 -12.6 °C -14.9 °C 35793.4 hPa WSW 7.7 km/h 12.9 km/h 75 % 0 mm
02:54 -12.7 °C -15 °C 35793.4 hPa WSW 10.3 km/h 15.6 km/h 75 % 0 mm
02:59 -12.7 °C -15.1 °C 35793.4 hPa West 10.3 km/h 15.6 km/h 75 % 0 mm
03:04 -12.8 °C -15.1 °C 35793.4 hPa West 5.1 km/h 15.6 km/h 75 % 0 mm
03:09 -12.8 °C -15.1 °C 35793.4 hPa WSW 10.3 km/h 12.9 km/h 75 % 0 mm
03:14 -12.8 °C -15.2 °C 35793.4 hPa West 7.7 km/h 10.3 km/h 75 % 0 mm
03:19 -12.8 °C -15.2 °C 35793.4 hPa WSW 7.7 km/h 10.3 km/h 75 % 0 mm
03:24 -12.9 °C -15.2 °C 35793.4 hPa WSW 7.7 km/h 10.3 km/h 76 % 0 mm
03:29 -12.9 °C -15.1 °C 35793.4 hPa West 7.7 km/h 7.7 km/h 76 % 0 mm
03:34 -12.9 °C -15.2 °C 35793.4 hPa WNW 10.3 km/h 7.7 km/h 76 % 0 mm
03:39 -12.9 °C -15.1 °C 35793.4 hPa WSW 7.7 km/h 10.3 km/h 76 % 0 mm
03:44 -12.9 °C -15.2 °C 35793.4 hPa WSW 5.1 km/h 10.3 km/h 76 % 0 mm
03:49 -13 °C -15.2 °C 35793.4 hPa WSW 7.7 km/h 10.3 km/h 76 % 0 mm
03:54 -13.1 °C -15.3 °C 35793.4 hPa WSW 7.7 km/h 7.7 km/h 76 % 0 mm
03:59 -13.1 °C -15.3 °C 35793.4 hPa WSW 10.3 km/h 7.7 km/h 76 % 0 mm
04:04 -13.1 °C -15.2 °C 35793.4 hPa WSW 10.3 km/h 10.3 km/h 77 % 0 mm
04:09 -13.2 °C -15.3 °C 35793.4 hPa West 5.1 km/h 10.3 km/h 77 % 0 mm
04:14 -13.2 °C -15.3 °C 35793.4 hPa WSW 7.7 km/h 10.3 km/h 77 % 0 mm
04:19 -13.3 °C -15.4 °C 35793.4 hPa WNW 7.7 km/h 12.9 km/h 77 % 0 mm
04:24 -13.3 °C -15.4 °C 35793.4 hPa WSW 7.7 km/h 12.9 km/h 77 % 0 mm
04:29 -13.3 °C -15.4 °C 35793.4 hPa WSW 10.3 km/h 12.9 km/h 77 % 0 mm
04:34 -13.3 °C -15.4 °C 35793.4 hPa WSW 7.7 km/h 10.3 km/h 77 % 0 mm
04:39 -13.4 °C -15.5 °C 35793.4 hPa WSW 5.1 km/h 10.3 km/h 77 % 0 mm
04:44 -13.3 °C -15.4 °C 35793.4 hPa WSW 7.7 km/h 10.3 km/h 77 % 0 mm
04:49 -13.4 °C -15.4 °C 35793.4 hPa West 10.3 km/h 7.7 km/h 78 % 0 mm
04:54 -13.4 °C -15.6 °C 35793.4 hPa NW 7.7 km/h 10.3 km/h 77 % 0 mm
04:59 -13.4 °C -15.6 °C 35793.4 hPa West 5.1 km/h 10.3 km/h 77 % 0 mm
05:04 -13.5 °C -15.6 °C 35793.4 hPa West 10.3 km/h 10.3 km/h 77 % 0 mm
05:09 -13.5 °C -15.6 °C 35793.4 hPa WNW 7.7 km/h 10.3 km/h 77 % 0 mm
05:14 -13.5 °C -15.6 °C 35793.4 hPa West 5.1 km/h 10.3 km/h 77 % 0 mm
05:19 -13.5 °C -15.5 °C 35793.4 hPa WSW 10.3 km/h 10.3 km/h 78 % 0 mm
05:24 -13.5 °C -15.5 °C 35793.4 hPa West 7.7 km/h 10.3 km/h 78 % 0 mm
05:29 -13.5 °C -15.5 °C 35793.4 hPa WNW 12.9 km/h 10.3 km/h 78 % 0 mm
05:34 -13.6 °C -15.6 °C 35793.4 hPa NW 10.3 km/h 12.9 km/h 78 % 0 mm
05:39 -13.6 °C -15.6 °C 35793.4 hPa West 10.3 km/h 12.9 km/h 78 % 0 mm
05:44 -13.5 °C -15.5 °C 35793.4 hPa WSW 7.7 km/h 12.9 km/h 78 % 0 mm
05:49 -13.5 °C -15.5 °C 35793.4 hPa WSW 12.9 km/h 12.9 km/h 78 % 0 mm
05:54 -13.6 °C -15.6 °C 35793.4 hPa NW 7.7 km/h 12.9 km/h 78 % 0 mm
05:59 -13.6 °C -15.6 °C 35793.4 hPa WNW 12.9 km/h 12.9 km/h 78 % 0 mm
06:04 -13.6 °C -15.6 °C 35793.4 hPa WNW 10.3 km/h 12.9 km/h 78 % 0 mm
06:09 -13.5 °C -15.5 °C 35793.4 hPa West 7.7 km/h 12.9 km/h 78 % 0 mm
06:14 -13.5 °C -15.5 °C 35793.4 hPa WSW 15.6 km/h 12.9 km/h 78 % 0 mm
06:19 -13.4 °C -15.3 °C 35793.4 hPa NW 7.7 km/h 15.6 km/h 79 % 0 mm
06:24 -13.4 °C -15.3 °C 35793.4 hPa West 7.7 km/h 15.6 km/h 79 % 0 mm
06:29 -13.4 °C -15.3 °C 35793.4 hPa West 7.7 km/h 15.6 km/h 79 % 0 mm
06:34 -13.3 °C -15.3 °C 35793.4 hPa WNW 10.3 km/h 12.9 km/h 78 % 0 mm
06:39 -13.2 °C -15.1 °C 35793.4 hPa NE 10.3 km/h 12.9 km/h 79 % 0 mm
06:44 -13.1 °C -15 °C 35793.4 hPa WSW 12.9 km/h 15.6 km/h 79 % 0 mm
06:49 -13.1 °C -14.9 °C 35793.4 hPa West 5.1 km/h 15.6 km/h 79 % 0 mm
06:54 -12.9 °C -14.8 °C 35793.4 hPa WSW 12.9 km/h 15.6 km/h 79 % 0 mm
06:59 -12.8 °C -14.7 °C 35793.4 hPa WSW 10.3 km/h 20.8 km/h 79 % 0 mm
07:04 -12.7 °C -14.6 °C 35793.4 hPa NW 15.6 km/h 20.8 km/h 79 % 0 mm
07:09 -12.7 °C -14.6 °C 35793.4 hPa West 15.6 km/h 20.8 km/h 79 % 0 mm
07:14 -12.4 °C -14.4 °C 35793.4 hPa WNW 10.3 km/h 20.8 km/h 79 % 0 mm
07:19 -12.3 °C -14.2 °C 35793.4 hPa NW 12.9 km/h 15.6 km/h 79 % 0 mm
07:24 -12.2 °C -14.3 °C 35793.4 hPa West 7.7 km/h 15.6 km/h 78 % 0 mm
07:29 -12.2 °C -14.2 °C 35793.4 hPa WNW 10.3 km/h 18.2 km/h 78 % 0 mm
07:34 -12.1 °C -14.2 °C 35793.4 hPa West 12.9 km/h 18.2 km/h 78 % 0 mm
07:39 -12.1 °C -14.1 °C 35793.4 hPa WSW 12.9 km/h 18.2 km/h 78 % 0 mm
07:44 -12 °C -14.1 °C 35793.4 hPa WSW 12.9 km/h 15.6 km/h 78 % 0 mm
07:49 -11.9 °C -14 °C 35793.4 hPa WNW 10.3 km/h 15.6 km/h 78 % 0 mm
07:54 -11.8 °C -13.9 °C 35793.4 hPa WSW 12.9 km/h 15.6 km/h 78 % 0 mm
07:59 -11.7 °C -13.8 °C 35793.4 hPa WSW 18.2 km/h 12.9 km/h 78 % 0 mm
08:04 -11.7 °C -13.8 °C 35793.4 hPa West 15.6 km/h 18.2 km/h 77 % 0 mm
08:09 -11.7 °C -13.8 °C 35793.4 hPa West 15.6 km/h 18.2 km/h 77 % 0 mm
08:14 -11.6 °C -13.7 °C 35793.4 hPa West 18.2 km/h 18.2 km/h 77 % 0 mm
08:19 -11.4 °C -13.6 °C 35793.4 hPa WSW 18.2 km/h 20.8 km/h 77 % 0 mm
08:24 -11.4 °C -13.6 °C 35793.4 hPa WSW 28.5 km/h 20.8 km/h 77 % 0 mm
08:29 -11.4 °C -13.6 °C 35793.4 hPa WSW 15.6 km/h 28.5 km/h 77 % 0 mm
08:34 -11.3 °C -13.4 °C 35793.4 hPa West 15.6 km/h 28.5 km/h 77 % 0 mm
08:39 -11.2 °C -13.3 °C 35793.4 hPa SW 18.2 km/h 28.5 km/h 77 % 0 mm
08:44 -11.1 °C -13.3 °C 35793.4 hPa WSW 15.6 km/h 15.6 km/h 77 % 0 mm
08:49 -11 °C -13.2 °C 35793.4 hPa WSW 15.6 km/h 18.2 km/h 77 % 0 mm
08:54 -10.8 °C -13.1 °C 35793.4 hPa SW 12.9 km/h 18.2 km/h 76 % 0 mm
08:59 -10.7 °C -13 °C 35793.4 hPa NW 12.9 km/h 18.2 km/h 76 % 0 mm
09:04 -10.7 °C -12.9 °C 35793.4 hPa West 28.5 km/h 18.2 km/h 76 % 0 mm
09:09 -10.7 °C -13.1 °C 35793.4 hPa West 18.2 km/h 28.5 km/h 75 % 0 mm
09:14 -10.6 °C -13.1 °C 35793.4 hPa WSW 20.8 km/h 33.6 km/h 74 % 0 mm
09:19 -10.3 °C -12.8 °C 35793.4 hPa WNW 23.3 km/h 33.6 km/h 74 % 0 mm
09:24 -10.3 °C -12.9 °C 35793.4 hPa WNW 25.9 km/h 33.6 km/h 73 % 0 mm
09:29 -10.3 °C -12.9 °C 35793.4 hPa West 25.9 km/h 28.5 km/h 73 % 0 mm
09:34 -10.1 °C -12.8 °C 35793.4 hPa WSW 20.8 km/h 25.9 km/h 73 % 0 mm
09:39 -9.9 °C -12.6 °C 35793.4 hPa WNW 20.8 km/h 25.9 km/h 73 % 0 mm
09:44 -9.9 °C -12.7 °C 35793.4 hPa WSW 15.6 km/h 28.5 km/h 72 % 0 mm
09:49 -9.8 °C -12.6 °C 35793.4 hPa WNW 20.8 km/h 28.5 km/h 72 % 0 mm
09:54 -9.7 °C -12.5 °C 35793.4 hPa NW 15.6 km/h 31.1 km/h 72 % 0 mm
09:59 -9.6 °C -12.5 °C 35793.4 hPa West 33.6 km/h 31.1 km/h 71 % 0 mm
10:04 -9.6 °C -12.4 °C 35793.4 hPa WNW 33.6 km/h 36.2 km/h 71 % 0 mm
10:09 -9.6 °C -12.4 °C 35793.4 hPa WSW 18.2 km/h 36.2 km/h 71 % 0 mm
10:14 -9.6 °C -12.6 °C 35793.4 hPa NW 25.9 km/h 36.2 km/h 70 % 0 mm
10:19 -9.6 °C -12.7 °C 35793.4 hPa West 12.9 km/h 33.6 km/h 69 % 0 mm
10:24 -9.4 °C -12.5 °C 35793.4 hPa NW 23.3 km/h 28.5 km/h 69 % 0 mm
10:29 -9.3 °C -12.5 °C 35793.4 hPa NNW 20.8 km/h 28.5 km/h 69 % 0 mm
10:34 -9.5 °C -12.8 °C 35793.4 hPa NW 23.3 km/h 33.6 km/h 68 % 0 mm
10:39 -9.6 °C -12.8 °C 35793.4 hPa West 5.1 km/h 33.6 km/h 68 % 0 mm
10:44 -9.6 °C -12.8 °C 35793.4 hPa NW 18.2 km/h 33.6 km/h 68 % 0 mm
10:49 -9.6 °C -12.8 °C 35793.4 hPa NW 18.2 km/h 23.3 km/h 68 % 0 mm
10:54 -9.5 °C -12.8 °C 35793.4 hPa NW 18.2 km/h 23.3 km/h 68 % 0 mm
10:59 -9.5 °C -12.8 °C 35793.4 hPa WNW 23.3 km/h 23.3 km/h 68 % 0 mm
11:04 -9.4 °C -12.7 °C 35793.4 hPa NW 10.3 km/h 23.3 km/h 68 % 0 mm
11:09 -9.4 °C -12.7 °C 35793.4 hPa NW 10.3 km/h 23.3 km/h 68 % 0 mm
11:14 -9.4 °C -12.7 °C 35793.4 hPa WSW 12.9 km/h 23.3 km/h 68 % 0 mm
11:19 -9.3 °C -12.6 °C 35793.4 hPa West 10.3 km/h 23.3 km/h 68 % 0 mm
11:24 -9.2 °C -12.4 °C 35793.4 hPa WSW 15.6 km/h 23.3 km/h 68 % 0 mm
11:29 -9.2 °C -12.6 °C 35793.4 hPa WSW 20.8 km/h 23.3 km/h 67 % 0 mm
11:34 -9.1 °C -12.6 °C 35793.4 hPa SW 10.3 km/h 20.8 km/h 66 % 0 mm
11:39 -9.1 °C -12.5 °C 35793.4 hPa NW 10.3 km/h 20.8 km/h 67 % 0 mm
11:44 -9.1 °C -12.4 °C 35793.4 hPa WSW 10.3 km/h 20.8 km/h 67 % 0 mm
11:49 -9.1 °C -12.5 °C 35793.4 hPa WNW 7.7 km/h 12.9 km/h 67 % 0 mm
11:54 -9.1 °C -12.4 °C 35793.4 hPa West 15.6 km/h 18.2 km/h 67 % 0 mm
11:59 -9.1 °C -12.5 °C 35793.4 hPa NW 5.1 km/h 18.2 km/h 67 % 0 mm
12:04 -9.1 °C -12.5 °C 35793.4 hPa West 12.9 km/h 18.2 km/h 67 % 0 mm
Weerstation Maaseik (B)
Gegevens verzameld door Weather Underground - 3.25 mb

Script ontwikkeld door  Jim McMurry - jmcmurry@mwt.net Aangepast voor de template door  Wim van der Kuil - Leuven-Template.eu

U vindt ons ook hier:

Het Weer Aktueel

Weather Underground

AWEKAS